FDX5010 LFPG-CYMX

Flight info

Callsign FDX5010
Flight time 6h 28m
Altitude 32000
Route ELCOB UT300 SENLO UN502 JSY DCT LIZAD DCT LULOX DCT XETBO/N0485F340 DCT LIMRI/M083F340 DCT H5220 DCT H5230 DCT 5240N DCT H5050 DCT BUDAR/N0484F340 N448A ANATI Q812 MAIRE T662 YUL
Aircraft B77L/H-SDE1E2E3FGHIJ2J3J4J5M1RWXY/LB1D1

Departure

Time 2026-04-22 17:21
Airport Charles de Gaulle International Airport (LFPG)

Arrival

Time 2026-04-22 23:50
Airport Montreal Mirabel International Airport (CYMX)
Time Latitude Longitude Altitude Speed Heading
2026-04-22 16:42 49.01328 2.50116 358 ft 0 kts 176°
2026-04-22 17:10 49.01340 2.50115 364 ft 4 kts 176°
2026-04-22 17:10 49.01367 2.50113 363 ft 4 kts 176°
2026-04-22 17:10 49.01388 2.50110 361 ft 4 kts 159°
2026-04-22 17:10 49.01405 2.50093 367 ft 4 kts 116°
2026-04-22 17:11 49.01411 2.50058 364 ft 4 kts 87°
2026-04-22 17:11 49.01410 2.50046 363 ft 0 kts 85°
2026-04-22 17:14 49.01412 2.50077 367 ft 7 kts 85°
2026-04-22 17:14 49.01415 2.50163 363 ft 8 kts 85°
2026-04-22 17:14 49.01420 2.50251 359 ft 8 kts 85°
2026-04-22 17:15 49.01423 2.50309 361 ft 8 kts 85°
2026-04-22 17:15 49.01431 2.50421 365 ft 6 kts 68°
2026-04-22 17:15 49.01469 2.50438 363 ft 6 kts 359°
2026-04-22 17:15 49.01513 2.50434 362 ft 7 kts 355°
2026-04-22 17:16 49.01565 2.50429 360 ft 7 kts 358°
2026-04-22 17:16 49.01606 2.50475 362 ft 10 kts 64°
2026-04-22 17:16 49.01620 2.50612 358 ft 16 kts 85°
2026-04-22 17:16 49.01629 2.50787 363 ft 17 kts 85°
2026-04-22 17:17 49.01638 2.50961 363 ft 16 kts 85°
2026-04-22 17:17 49.01645 2.51089 366 ft 12 kts 85°
2026-04-22 17:17 49.01653 2.51216 361 ft 12 kts 80°
2026-04-22 17:17 49.01718 2.51274 365 ft 12 kts 360°
2026-04-22 17:18 49.01802 2.51265 359 ft 12 kts 356°
2026-04-22 17:18 49.01884 2.51257 365 ft 10 kts 356°
2026-04-22 17:18 49.01938 2.51253 362 ft 8 kts
2026-04-22 17:18 49.01988 2.51278 362 ft 8 kts 31°
2026-04-22 17:19 49.02065 2.51382 366 ft 8 kts 68°
2026-04-22 17:19 49.02070 2.51434 364 ft 0 kts 85°
2026-04-22 17:20 49.02070 2.51435 364 ft 2 kts 85°
2026-04-22 17:20 49.02121 2.52375 363 ft 109 kts 85°
2026-04-22 17:21 49.02199 2.53842 373 ft 165 kts 85°
2026-04-22 17:21 49.02402 2.57304 1815 ft 161 kts 85°
2026-04-22 17:22 49.02544 2.60738 2793 ft 167 kts 84°
2026-04-22 17:22 49.02623 2.62536 3229 ft 172 kts 84°
2026-04-22 17:22 49.02794 2.66368 3869 ft 199 kts 83°
2026-04-22 17:23 49.02949 2.68591 4037 ft 224 kts 84°
2026-04-22 17:23 49.03461 2.73441 5011 ft 244 kts 62°
2026-04-22 17:23 49.04594 2.75417 5651 ft 253 kts 38°
2026-04-22 17:24 49.06227 2.76514 6365 ft 264 kts 14°
2026-04-22 17:24 49.08092 2.76417 7043 ft 276 kts 347°
2026-04-22 17:24 49.09790 2.74972 7683 ft 288 kts 319°
2026-04-22 17:24 49.10906 2.72429 8391 ft 294 kts 289°
2026-04-22 17:25 49.11125 2.69321 9022 ft 297 kts 262°
2026-04-22 17:25 49.10719 2.66217 9746 ft 298 kts 256°
2026-04-22 17:25 49.10050 2.63272 10533 ft 289 kts 245°
2026-04-22 17:25 49.09189 2.60514 11057 ft 297 kts 245°
2026-04-22 17:26 49.08290 2.57560 11316 ft 315 kts 246°
2026-04-22 17:26 49.07377 2.54404 11567 ft 334 kts 247°
2026-04-22 17:26 49.06430 2.51059 11834 ft 353 kts 248°
2026-04-22 17:26 49.05442 2.47517 12106 ft 372 kts 248°
2026-04-22 17:27 49.04411 2.43806 12597 ft 383 kts 248°
2026-04-22 17:27 49.03377 2.40093 13677 ft 375 kts 248°
2026-04-22 17:27 49.02405 2.36440 14585 ft 370 kts 254°
2026-04-22 17:27 49.02037 2.32519 14767 ft 379 kts 273°
2026-04-22 17:28 49.02131 2.28483 15119 ft 391 kts 275°
2026-04-22 17:28 49.02240 2.24322 15753 ft 395 kts 275°
2026-04-22 17:28 49.02337 2.20135 16541 ft 395 kts 274°
2026-04-22 17:28 49.02417 2.15940 17299 ft 397 kts 274°
2026-04-22 17:29 49.02484 2.11710 18017 ft 399 kts 274°
2026-04-22 17:29 49.02542 2.07461 18699 ft 402 kts 274°
2026-04-22 17:29 49.02593 2.03199 19340 ft 403 kts 274°
2026-04-22 17:29 49.02639 1.98984 19979 ft 404 kts 274°
2026-04-22 17:30 49.02684 1.94702 20625 ft 405 kts 274°
2026-04-22 17:30 49.02726 1.90392 21253 ft 406 kts 275°
2026-04-22 17:30 49.02768 1.86079 21839 ft 408 kts 275°
2026-04-22 17:30 49.02809 1.81735 22411 ft 411 kts 275°
2026-04-22 17:31 49.02848 1.77363 22994 ft 413 kts 275°
2026-04-22 17:31 49.02886 1.72968 23581 ft 415 kts 275°
2026-04-22 17:31 49.02922 1.68564 24071 ft 418 kts 275°
2026-04-22 17:31 49.02956 1.64106 24513 ft 421 kts 275°
2026-04-22 17:32 49.02990 1.59693 24951 ft 423 kts 275°
2026-04-22 17:32 49.03022 1.55141 25428 ft 425 kts 275°
2026-04-22 17:32 49.03051 1.50680 25869 ft 427 kts 274°
2026-04-22 17:32 49.03080 1.46135 26297 ft 430 kts 274°
2026-04-22 17:33 49.03098 1.43108 26583 ft 432 kts 274°
2026-04-22 17:33 49.03132 1.36958 27162 ft 435 kts 274°
2026-04-22 17:33 49.03155 1.32332 27596 ft 437 kts 274°
2026-04-22 17:33 49.03178 1.27690 27988 ft 439 kts 274°
2026-04-22 17:34 49.03198 1.23020 28374 ft 442 kts 274°
2026-04-22 17:34 49.03246 1.18385 28753 ft 443 kts 275°
2026-04-22 17:34 49.03374 1.13672 29128 ft 445 kts 276°
2026-04-22 17:34 49.03537 1.08939 29482 ft 447 kts 276°
2026-04-22 17:35 49.03707 1.04195 29812 ft 449 kts 276°
2026-04-22 17:35 49.03870 0.99427 30166 ft 451 kts 276°
2026-04-22 17:35 49.04024 0.94666 30586 ft 449 kts 276°
2026-04-22 17:35 49.04168 0.89912 30991 ft 447 kts 275°
2026-04-22 17:36 49.04305 0.85178 31388 ft 446 kts 275°
2026-04-22 17:36 49.04437 0.80480 31764 ft 445 kts 275°
2026-04-22 17:36 49.04567 0.75763 32102 ft 444 kts 275°
2026-04-22 17:36 49.04695 0.71085 32145 ft 449 kts 275°
2026-04-22 17:37 49.04948 0.61587 32184 ft 445 kts 275°
2026-04-22 17:37 49.05190 0.52181 32185 ft 443 kts 275°
2026-04-22 17:38 49.05425 0.42842 32198 ft 443 kts 275°
2026-04-22 17:38 49.05654 0.33421 32202 ft 444 kts 275°
2026-04-22 17:39 49.05875 0.23988 32201 ft 445 kts 275°
2026-04-22 17:40 49.06194 0.09780 32197 ft 447 kts 274°
2026-04-22 17:40 49.06395 0.00345 32183 ft 448 kts 274°
2026-04-22 17:41 49.06591 -0.09170 32181 ft 449 kts 274°
2026-04-22 17:41 49.06780 -0.18696 32179 ft 449 kts 274°
2026-04-22 17:42 49.06961 -0.28233 32180 ft 450 kts 274°
2026-04-22 17:42 49.07107 -0.36169 32186 ft 450 kts 274°
2026-04-22 17:43 49.07303 -0.47277 32179 ft 451 kts 273°
2026-04-22 17:43 49.07463 -0.56839 32181 ft 451 kts 273°
2026-04-22 17:44 49.07615 -0.66410 32182 ft 451 kts 273°
2026-04-22 17:44 49.07760 -0.75992 32174 ft 452 kts 273°
2026-04-22 17:45 49.07897 -0.85524 32174 ft 452 kts 272°
2026-04-22 17:45 49.08025 -0.95124 32165 ft 453 kts 272°
2026-04-22 17:46 49.08128 -1.03122 32167 ft 453 kts 272°
2026-04-22 17:46 49.08246 -1.12736 32160 ft 453 kts 273°
2026-04-22 17:47 49.08965 -1.22266 32164 ft 452 kts 283°
2026-04-22 17:47 49.10493 -1.31585 32162 ft 452 kts 284°
2026-04-22 17:48 49.12033 -1.40913 32164 ft 453 kts 284°
2026-04-22 17:48 49.13537 -1.50213 32157 ft 454 kts 284°
2026-04-22 17:49 49.15037 -1.59612 32161 ft 455 kts 284°
2026-04-22 17:49 49.16530 -1.69024 32153 ft 456 kts 283°
2026-04-22 17:50 49.18019 -1.78461 32158 ft 457 kts 283°
2026-04-22 17:50 49.19502 -1.87911 32154 ft 458 kts 283°
2026-04-22 17:51 49.20973 -1.97335 32158 ft 458 kts 283°
2026-04-22 17:51 49.22456 -2.06830 32153 ft 459 kts 284°
2026-04-22 17:52 49.24066 -2.16300 32160 ft 460 kts 284°
2026-04-22 17:52 49.25706 -2.25712 32153 ft 460 kts 284°
2026-04-22 17:53 49.27337 -2.35204 32159 ft 461 kts 284°
2026-04-22 17:53 49.28949 -2.44709 32154 ft 461 kts 284°
2026-04-22 17:54 49.30550 -2.54227 32183 ft 461 kts 284°
2026-04-22 17:54 49.32132 -2.63683 32178 ft 461 kts 283°
2026-04-22 17:55 49.33726 -2.73265 32181 ft 461 kts 283°
2026-04-22 17:55 49.35296 -2.82748 32173 ft 461 kts 283°
2026-04-22 17:56 49.36867 -2.92295 32180 ft 461 kts 283°
2026-04-22 17:56 49.38430 -3.01849 32171 ft 461 kts 283°
2026-04-22 17:57 49.39965 -3.11277 32171 ft 461 kts 283°
2026-04-22 17:57 49.41511 -3.20837 32169 ft 461 kts 282°
2026-04-22 17:58 49.43049 -3.30400 32166 ft 460 kts 282°
2026-04-22 17:58 49.44575 -3.39940 32164 ft 460 kts 282°
2026-04-22 17:59 49.46094 -3.49492 32165 ft 460 kts 282°
2026-04-22 17:59 49.47611 -3.59082 32157 ft 461 kts 282°
2026-04-22 18:00 49.48865 -3.67057 32165 ft 462 kts 282°
2026-04-22 18:00 49.50614 -3.78246 32163 ft 462 kts 282°
2026-04-22 18:01 49.52108 -3.87863 32166 ft 462 kts 281°
2026-04-22 18:01 49.53595 -3.97494 32162 ft 462 kts 281°
2026-04-22 18:02 49.55065 -4.07078 32160 ft 462 kts 281°
2026-04-22 18:02 49.56524 -4.16643 32141 ft 451 kts 281°
2026-04-22 18:03 49.57958 -4.26089 32169 ft 457 kts 281°
2026-04-22 18:03 49.59549 -4.35639 32148 ft 462 kts 286°
2026-04-22 18:04 49.61676 -4.44853 32166 ft 457 kts 287°
2026-04-22 18:04 49.63848 -4.54166 32172 ft 463 kts 287°
2026-04-22 18:05 49.65997 -4.63495 32162 ft 460 kts 286°
2026-04-22 18:05 49.68130 -4.72871 32162 ft 462 kts 287°
2026-04-22 18:06 49.70243 -4.82210 32163 ft 462 kts 286°
2026-04-22 18:06 49.72368 -4.91646 32167 ft 465 kts 287°
2026-04-22 18:07 49.74488 -5.01090 32167 ft 465 kts 287°
2026-04-22 18:07 49.76585 -5.10481 32171 ft 465 kts 286°
2026-04-22 18:08 49.78694 -5.19968 32423 ft 466 kts 287°
2026-04-22 18:08 49.79744 -5.24709 32855 ft 464 kts 286°
2026-04-22 18:08 49.80784 -5.29419 33288 ft 461 kts 286°
2026-04-22 18:08 49.81823 -5.34124 33678 ft 459 kts 286°
2026-04-22 18:09 49.82853 -5.38801 34056 ft 458 kts 286°
2026-04-22 18:09 49.84893 -5.48100 34162 ft 456 kts 286°
2026-04-22 18:10 49.86916 -5.57368 34163 ft 455 kts 286°
2026-04-22 18:10 49.88938 -5.66686 34158 ft 456 kts 286°
2026-04-22 18:11 49.90959 -5.76021 34158 ft 454 kts 286°
2026-04-22 18:11 49.92972 -5.85372 34163 ft 457 kts 285°
2026-04-22 18:12 49.94960 -5.94628 34163 ft 455 kts 285°
2026-04-22 18:12 49.96636 -6.02485 34156 ft 456 kts 285°
2026-04-22 18:13 49.98947 -6.13359 34164 ft 456 kts 285°
2026-04-22 18:13 50.00933 -6.22759 34162 ft 457 kts 285°
2026-04-22 18:14 50.02909 -6.32147 34161 ft 457 kts 285°
2026-04-22 18:14 50.04873 -6.41522 34159 ft 459 kts 285°
2026-04-22 18:15 50.06838 -6.50941 34163 ft 458 kts 285°
2026-04-22 18:15 50.08802 -6.60412 34153 ft 460 kts 285°
2026-04-22 18:16 50.10757 -6.69867 34136 ft 457 kts 284°
2026-04-22 18:16 50.12706 -6.79348 34148 ft 460 kts 285°
2026-04-22 18:17 50.14645 -6.88820 34140 ft 458 kts 284°
2026-04-22 18:17 50.16575 -6.98308 34140 ft 459 kts 284°
2026-04-22 18:18 50.18492 -7.07773 34145 ft 462 kts 284°
2026-04-22 18:18 50.20430 -7.17387 34146 ft 466 kts 284°
2026-04-22 18:19 50.22377 -7.27085 34138 ft 468 kts 284°
2026-04-22 18:19 50.24321 -7.36819 34137 ft 470 kts 284°
2026-04-22 18:20 50.26260 -7.46583 34134 ft 470 kts 284°
2026-04-22 18:20 50.28180 -7.56290 34134 ft 470 kts 284°
2026-04-22 18:21 50.30096 -7.66035 34134 ft 469 kts 283°
2026-04-22 18:21 50.32004 -7.75782 34133 ft 467 kts 283°
2026-04-22 18:22 50.33898 -7.85513 34137 ft 466 kts 283°
2026-04-22 18:22 50.35781 -7.95228 34135 ft 466 kts 283°
2026-04-22 18:23 50.38062 -8.04747 34134 ft 469 kts 291°
2026-04-22 18:23 50.40914 -8.13946 34136 ft 469 kts 292°
2026-04-22 18:24 50.45185 -8.27711 34131 ft 469 kts 291°
2026-04-22 18:25 50.49391 -8.41515 34135 ft 469 kts 291°
2026-04-22 18:25 50.52191 -8.50780 34133 ft 469 kts 291°
2026-04-22 18:26 50.56377 -8.64694 34131 ft 469 kts 291°
2026-04-22 18:26 50.59160 -8.73981 34127 ft 469 kts 290°
2026-04-22 18:27 50.61918 -8.83222 34130 ft 468 kts 290°
2026-04-22 18:27 50.64681 -8.92519 34113 ft 468 kts 290°
2026-04-22 18:28 50.67437 -9.01823 34116 ft 467 kts 290°
2026-04-22 18:28 50.70176 -9.11109 34111 ft 467 kts 290°
2026-04-22 18:29 50.72906 -9.20399 34114 ft 466 kts 290°
2026-04-22 18:29 50.75630 -9.29705 34109 ft 465 kts 289°
2026-04-22 18:30 50.79670 -9.43574 34103 ft 464 kts 289°
2026-04-22 18:31 50.82363 -9.52864 34102 ft 464 kts 289°
2026-04-22 18:31 50.85041 -9.62137 34096 ft 463 kts 289°
2026-04-22 18:32 50.87261 -9.69852 34093 ft 462 kts 289°
2026-04-22 18:32 50.90365 -9.80682 34090 ft 462 kts 289°
2026-04-22 18:33 50.93012 -9.89959 34086 ft 461 kts 288°
2026-04-22 18:33 50.95631 -9.99170 34085 ft 461 kts 288°
2026-04-22 18:34 50.98257 -10.08444 34087 ft 461 kts 288°
2026-04-22 18:34 51.00455 -10.16234 34078 ft 461 kts 288°
2026-04-22 18:35 51.03055 -10.25482 34083 ft 461 kts 288°
2026-04-22 18:35 51.05665 -10.34803 34080 ft 461 kts 288°
2026-04-22 18:36 51.08269 -10.44138 34067 ft 461 kts 287°
2026-04-22 18:36 51.10864 -10.53478 34073 ft 461 kts 287°
2026-04-22 18:37 51.13436 -10.62774 34071 ft 461 kts 287°
2026-04-22 18:37 51.16018 -10.72144 34065 ft 462 kts 287°
2026-04-22 18:38 51.18595 -10.81532 34062 ft 462 kts 287°
2026-04-22 18:38 51.21164 -10.90930 34054 ft 463 kts 287°
2026-04-22 18:39 51.25010 -11.05069 34056 ft 464 kts 287°
2026-04-22 18:39 51.27571 -11.14534 34056 ft 464 kts 286°
2026-04-22 18:40 51.30114 -11.23970 34052 ft 465 kts 286°
2026-04-22 18:40 51.32668 -11.33484 34046 ft 466 kts 286°
2026-04-22 18:41 51.35217 -11.43018 34043 ft 466 kts 286°
2026-04-22 18:41 51.37761 -11.52575 34042 ft 467 kts 286°
2026-04-22 18:42 51.40283 -11.62090 34036 ft 467 kts 286°
2026-04-22 18:42 51.42816 -11.71682 34034 ft 467 kts 285°
2026-04-22 18:43 51.45344 -11.81300 34032 ft 467 kts 285°
2026-04-22 18:43 51.47859 -11.90909 34029 ft 467 kts 285°
2026-04-22 18:44 51.50354 -12.00477 34030 ft 467 kts 285°
2026-04-22 18:44 51.52858 -12.10124 34028 ft 467 kts 285°
2026-04-22 18:45 51.55354 -12.19783 34030 ft 468 kts 285°
2026-04-22 18:45 51.57825 -12.29386 34025 ft 468 kts 285°
2026-04-22 18:46 51.60307 -12.39068 34012 ft 468 kts 285°
2026-04-22 18:46 51.62777 -12.48751 34012 ft 468 kts 285°
2026-04-22 18:47 51.65240 -12.58445 34013 ft 468 kts 285°
2026-04-22 18:47 51.67697 -12.68159 34008 ft 468 kts 285°
2026-04-22 18:48 51.70152 -12.77905 34012 ft 468 kts 284°
2026-04-22 18:48 51.72579 -12.87584 34004 ft 469 kts 284°
2026-04-22 18:49 51.75015 -12.97342 34007 ft 469 kts 284°
2026-04-22 18:49 51.77452 -13.07145 33996 ft 470 kts 284°
2026-04-22 18:50 51.79879 -13.16954 34001 ft 471 kts 284°
2026-04-22 18:50 51.82306 -13.26808 33990 ft 472 kts 284°
2026-04-22 18:51 51.84718 -13.36643 33999 ft 473 kts 284°
2026-04-22 18:51 51.87143 -13.46572 33996 ft 475 kts 284°
2026-04-22 18:52 51.89565 -13.56538 33982 ft 476 kts 284°
2026-04-22 18:52 51.91973 -13.66489 33990 ft 477 kts 284°
2026-04-22 18:53 51.94392 -13.76533 33986 ft 479 kts 284°
2026-04-22 18:53 51.96810 -13.86614 33982 ft 481 kts 284°
2026-04-22 18:54 51.99043 -13.96813 33977 ft 475 kts 277°
2026-04-22 18:54 52.00068 -14.07295 33980 ft 467 kts 266°
2026-04-22 18:55 52.00122 -14.17776 33977 ft 464 kts 263°
2026-04-22 18:55 52.00092 -14.28277 33972 ft 466 kts 264°
2026-04-22 18:56 52.00087 -14.38812 33968 ft 468 kts 264°
2026-04-22 18:56 52.00093 -14.49328 33962 ft 469 kts 264°
2026-04-22 18:57 52.00093 -14.59938 33953 ft 470 kts 264°
2026-04-22 18:57 52.00083 -14.70559 33951 ft 471 kts 264°
2026-04-22 18:58 52.00062 -14.81195 33946 ft 471 kts 264°
2026-04-22 18:58 52.00032 -14.91850 33940 ft 472 kts 264°
2026-04-22 18:59 52.00285 -15.02530 33938 ft 478 kts 272°
2026-04-22 18:59 52.01508 -15.13128 33932 ft 482 kts 276°
2026-04-22 19:00 52.02851 -15.23802 33934 ft 482 kts 276°
2026-04-22 19:00 52.04164 -15.34505 33928 ft 482 kts 276°
2026-04-22 19:01 52.05441 -15.45202 33927 ft 483 kts 276°
2026-04-22 19:01 52.06705 -15.55946 33927 ft 483 kts 276°
2026-04-22 19:02 52.07960 -15.66700 33925 ft 485 kts 276°
2026-04-22 19:02 52.09203 -15.77434 33913 ft 486 kts 276°
2026-04-22 19:03 52.10446 -15.88250 33911 ft 486 kts 276°
2026-04-22 19:03 52.11679 -15.99069 33908 ft 487 kts 276°
2026-04-22 19:04 52.12906 -16.09931 33914 ft 487 kts 276°
2026-04-22 19:04 52.14114 -16.20719 33895 ft 488 kts 276°
2026-04-22 19:05 52.15323 -16.31613 33897 ft 489 kts 276°
2026-04-22 19:05 52.16526 -16.42543 33902 ft 490 kts 276°
2026-04-22 19:06 52.17720 -16.53496 33901 ft 491 kts 276°
2026-04-22 19:07 52.19499 -16.70002 33888 ft 494 kts 276°
2026-04-22 19:07 52.20675 -16.81035 33893 ft 495 kts 276°
2026-04-22 19:08 52.21836 -16.92037 33888 ft 496 kts 276°
2026-04-22 19:08 52.23000 -17.03156 33888 ft 498 kts 276°
2026-04-22 19:09 52.24156 -17.14317 33881 ft 499 kts 276°
2026-04-22 19:09 52.25111 -17.23617 33879 ft 500 kts 275°
2026-04-22 19:10 52.26444 -17.36725 33877 ft 502 kts 275°
2026-04-22 19:10 52.27571 -17.47928 33879 ft 503 kts 275°
2026-04-22 19:11 52.28694 -17.59210 33876 ft 504 kts 275°
2026-04-22 19:11 52.29813 -17.70548 33871 ft 505 kts 276°
2026-04-22 19:12 52.30921 -17.81903 33872 ft 507 kts 276°
2026-04-22 19:12 52.32022 -17.93308 33875 ft 509 kts 276°
2026-04-22 19:13 52.33115 -18.04746 33860 ft 509 kts 275°
2026-04-22 19:13 52.34193 -18.16139 33862 ft 510 kts 275°
2026-04-22 19:14 52.36199 -18.37686 33863 ft 512 kts 276°
2026-04-22 19:15 52.37253 -18.49193 33839 ft 509 kts 276°
2026-04-22 19:15 52.38291 -18.60620 33866 ft 509 kts 276°
2026-04-22 19:16 52.39317 -18.72096 33845 ft 514 kts 276°
2026-04-22 19:16 52.40345 -18.83698 33840 ft 512 kts 276°
2026-04-22 19:17 52.41355 -18.95217 33866 ft 512 kts 276°
2026-04-22 19:17 52.42357 -19.06791 33836 ft 512 kts 276°
2026-04-22 19:18 52.43350 -19.18400 33847 ft 515 kts 276°
2026-04-22 19:18 52.44333 -19.30028 33845 ft 513 kts 276°
2026-04-22 19:19 52.45303 -19.41643 33848 ft 518 kts 276°
2026-04-22 19:19 52.46268 -19.53335 33847 ft 516 kts 276°
2026-04-22 19:20 52.47217 -19.64992 33844 ft 521 kts 276°
2026-04-22 19:20 52.48170 -19.76832 33846 ft 525 kts 276°
2026-04-22 19:21 52.49119 -19.88768 33848 ft 529 kts 276°
2026-04-22 19:21 52.50048 -20.00795 33844 ft 532 kts 275°
2026-04-22 19:22 52.50625 -20.12945 33835 ft 534 kts 272°
2026-04-22 19:22 52.51068 -20.25012 33829 ft 531 kts 272°
2026-04-22 19:23 52.51508 -20.37046 33827 ft 526 kts 272°
2026-04-22 19:23 52.51961 -20.49018 33834 ft 524 kts 273°
2026-04-22 19:24 52.52412 -20.60960 33826 ft 524 kts 273°
2026-04-22 19:24 52.52852 -20.72920 33830 ft 525 kts 273°
2026-04-22 19:25 52.53279 -20.84900 33829 ft 526 kts 273°
2026-04-22 19:25 52.53691 -20.96849 33832 ft 528 kts 273°
2026-04-22 19:26 52.54096 -21.08922 33833 ft 529 kts 273°
2026-04-22 19:26 52.54488 -21.21012 33838 ft 530 kts 273°
2026-04-22 19:27 52.54870 -21.33129 33828 ft 531 kts 273°
2026-04-22 19:27 52.55239 -21.45269 33832 ft 532 kts 273°
2026-04-22 19:28 52.55594 -21.57339 33830 ft 532 kts 273°
2026-04-22 19:28 52.55939 -21.69471 33823 ft 531 kts 273°
2026-04-22 19:29 52.56270 -21.81584 33823 ft 530 kts 273°
2026-04-22 19:29 52.56589 -21.93713 33829 ft 530 kts 273°
2026-04-22 19:30 52.56846 -22.03788 33828 ft 530 kts 273°
2026-04-22 19:30 52.57189 -22.17862 33831 ft 530 kts 273°
2026-04-22 19:31 52.57471 -22.29976 33833 ft 530 kts 273°
2026-04-22 19:31 52.57741 -22.42100 33826 ft 530 kts 273°
2026-04-22 19:32 52.57996 -22.54136 33833 ft 530 kts 273°
2026-04-22 19:32 52.58241 -22.66256 33835 ft 530 kts 273°
2026-04-22 19:33 52.58474 -22.78387 33834 ft 530 kts 273°
2026-04-22 19:33 52.58694 -22.90528 33838 ft 530 kts 273°
2026-04-22 19:34 52.58902 -23.02656 33839 ft 531 kts 272°
2026-04-22 19:34 52.59098 -23.14806 33851 ft 531 kts 272°
2026-04-22 19:35 52.59280 -23.26877 33833 ft 532 kts 272°
2026-04-22 19:35 52.59451 -23.39039 33837 ft 531 kts 272°
2026-04-22 19:36 52.59609 -23.51188 33838 ft 529 kts 272°
2026-04-22 19:36 52.59755 -23.63286 33838 ft 528 kts 272°
2026-04-22 19:37 52.59886 -23.75268 33838 ft 527 kts 272°
2026-04-22 19:37 52.60007 -23.87318 33844 ft 526 kts 272°
2026-04-22 19:38 52.60115 -23.99361 33845 ft 525 kts 272°
2026-04-22 19:38 52.60211 -24.11363 33853 ft 524 kts 273°
2026-04-22 19:39 52.60294 -24.23288 33842 ft 524 kts 273°
2026-04-22 19:39 52.60365 -24.35280 33845 ft 523 kts 273°
2026-04-22 19:40 52.60425 -24.47261 33858 ft 523 kts 273°
2026-04-22 19:40 52.60472 -24.59221 33858 ft 523 kts 273°
2026-04-22 19:41 52.60507 -24.71113 33856 ft 522 kts 272°
2026-04-22 19:41 52.60530 -24.83057 33863 ft 522 kts 272°
2026-04-22 19:42 52.60541 -24.95020 33858 ft 522 kts 272°
2026-04-22 19:42 52.60540 -25.06992 33859 ft 522 kts 272°
2026-04-22 19:43 52.60516 -25.24831 33873 ft 522 kts 272°
2026-04-22 19:43 52.60485 -25.36773 33872 ft 522 kts 272°
2026-04-22 19:44 52.60442 -25.48728 33886 ft 523 kts 272°
2026-04-22 19:44 52.60387 -25.60715 33873 ft 524 kts 272°
2026-04-22 19:45 52.60320 -25.72713 33875 ft 524 kts 271°
2026-04-22 19:45 52.60240 -25.84717 33877 ft 524 kts 271°
2026-04-22 19:46 52.60148 -25.96698 33885 ft 524 kts 271°
2026-04-22 19:46 52.60045 -26.08627 33883 ft 524 kts 271°
2026-04-22 19:47 52.59929 -26.20633 33883 ft 524 kts 271°
2026-04-22 19:47 52.59801 -26.32623 33889 ft 524 kts 271°
2026-04-22 19:48 52.59662 -26.44545 33886 ft 524 kts 271°
2026-04-22 19:48 52.59510 -26.56520 33899 ft 523 kts 271°
2026-04-22 19:49 52.59346 -26.68488 33895 ft 523 kts 270°
2026-04-22 19:49 52.59171 -26.80457 33905 ft 523 kts 270°
2026-04-22 19:50 52.58982 -26.92430 33907 ft 523 kts 270°
2026-04-22 19:50 52.58783 -27.04386 33905 ft 523 kts 270°
2026-04-22 19:51 52.58571 -27.16332 33908 ft 522 kts 270°
2026-04-22 19:51 52.58349 -27.28196 33911 ft 522 kts 270°
2026-04-22 19:52 52.58113 -27.40135 33917 ft 521 kts 270°
2026-04-22 19:52 52.57866 -27.52043 33921 ft 521 kts 270°
2026-04-22 19:53 52.57608 -27.63926 33920 ft 520 kts 269°
2026-04-22 19:53 52.57337 -27.75811 33923 ft 519 kts 269°
2026-04-22 19:54 52.57055 -27.87678 33926 ft 519 kts 269°
2026-04-22 19:54 52.56764 -27.99442 33929 ft 518 kts 269°
2026-04-22 19:55 52.56459 -28.11282 33930 ft 518 kts 269°
2026-04-22 19:55 52.56143 -28.23119 33936 ft 517 kts 269°
2026-04-22 19:56 52.55815 -28.34930 33940 ft 517 kts 269°
2026-04-22 19:56 52.55478 -28.46675 33943 ft 517 kts 269°
2026-04-22 19:57 52.55127 -28.58477 33943 ft 516 kts 268°
2026-04-22 19:57 52.54765 -28.70257 33950 ft 516 kts 268°
2026-04-22 19:58 52.54391 -28.82037 33954 ft 515 kts 268°
2026-04-22 19:58 52.54006 -28.93796 33953 ft 515 kts 268°
2026-04-22 20:00 52.52572 -29.34807 33966 ft 514 kts 267°
2026-04-22 20:01 52.52210 -29.44551 33971 ft 514 kts 267°
2026-04-22 20:01 52.51764 -29.56274 33974 ft 514 kts 267°
2026-04-22 20:02 52.51307 -29.67991 33978 ft 514 kts 266°
2026-04-22 20:02 52.50839 -29.79700 33976 ft 513 kts 266°
2026-04-22 20:03 52.50363 -29.91331 33979 ft 513 kts 266°
2026-04-22 20:03 52.49933 -30.03020 33979 ft 512 kts 269°
2026-04-22 20:04 52.49809 -30.14724 33994 ft 512 kts 270°
2026-04-22 20:04 52.49745 -30.26410 34001 ft 511 kts 270°
2026-04-22 20:05 52.49653 -30.38003 33999 ft 511 kts 269°
2026-04-22 20:05 52.49529 -30.49679 33996 ft 511 kts 269°
2026-04-22 20:06 52.49385 -30.61351 34005 ft 510 kts 269°
2026-04-22 20:06 52.49231 -30.72987 34012 ft 510 kts 269°
2026-04-22 20:07 52.49066 -30.84637 34013 ft 510 kts 268°
2026-04-22 20:07 52.48892 -30.96201 34022 ft 510 kts 268°
2026-04-22 20:08 52.48705 -31.07825 34024 ft 509 kts 268°
2026-04-22 20:08 52.48508 -31.19443 34030 ft 509 kts 268°
2026-04-22 20:09 52.48298 -31.31051 34032 ft 508 kts 268°
2026-04-22 20:09 52.48078 -31.42648 34032 ft 507 kts 267°
2026-04-22 20:10 52.47848 -31.54202 34039 ft 507 kts 267°
2026-04-22 20:10 52.47607 -31.65687 34042 ft 506 kts 267°
2026-04-22 20:11 52.47355 -31.77227 34051 ft 505 kts 267°
2026-04-22 20:11 52.47091 -31.88753 34054 ft 505 kts 267°
2026-04-22 20:12 52.46816 -32.00272 34053 ft 506 kts 266°
2026-04-22 20:12 52.46529 -32.11823 34054 ft 507 kts 266°
2026-04-22 20:13 52.46232 -32.23329 34067 ft 510 kts 266°
2026-04-22 20:13 52.45918 -32.35033 34070 ft 516 kts 267°
2026-04-22 20:14 52.45593 -32.46717 34061 ft 508 kts 267°
2026-04-22 20:14 52.45261 -32.58275 34078 ft 513 kts 267°
2026-04-22 20:15 52.44913 -32.69984 34071 ft 512 kts 267°
2026-04-22 20:15 52.44554 -32.81670 34082 ft 513 kts 267°
2026-04-22 20:16 52.44184 -32.93329 34087 ft 512 kts 267°
2026-04-22 20:16 52.43802 -33.04989 34087 ft 512 kts 267°
2026-04-22 20:17 52.43410 -33.16600 34085 ft 511 kts 268°
2026-04-22 20:17 52.43007 -33.28224 34099 ft 513 kts 268°
2026-04-22 20:18 52.42591 -33.39883 34087 ft 510 kts 268°
2026-04-22 20:18 52.42164 -33.51506 34100 ft 511 kts 268°
2026-04-22 20:19 52.41726 -33.63126 34104 ft 510 kts 268°
2026-04-22 20:19 52.41279 -33.74714 34103 ft 508 kts 268°
2026-04-22 20:20 52.40823 -33.86278 34120 ft 510 kts 268°
2026-04-22 20:20 52.40355 -33.97752 34110 ft 507 kts 268°
2026-04-22 20:21 52.39875 -34.09290 34118 ft 507 kts 268°
2026-04-22 20:21 52.39385 -34.20772 34113 ft 504 kts 268°
2026-04-22 20:22 52.38888 -34.32162 34115 ft 498 kts 268°
2026-04-22 20:22 52.38387 -34.43437 34118 ft 495 kts 268°
2026-04-22 20:23 52.37877 -34.54655 34126 ft 493 kts 268°
2026-04-22 20:23 52.37361 -34.65774 34133 ft 493 kts 268°
2026-04-22 20:24 52.36830 -34.76988 34135 ft 495 kts 268°
2026-04-22 20:24 52.36287 -34.88242 34141 ft 496 kts 268°
2026-04-22 20:25 52.35731 -34.99514 34142 ft 498 kts 268°
2026-04-22 20:25 52.35162 -35.10841 34146 ft 499 kts 269°
2026-04-22 20:26 52.34584 -35.22111 34149 ft 500 kts 269°
2026-04-22 20:26 52.33992 -35.33448 34153 ft 500 kts 269°
2026-04-22 20:27 52.33388 -35.44803 34153 ft 500 kts 269°
2026-04-22 20:27 52.32775 -35.56119 34155 ft 499 kts 269°
2026-04-22 20:28 52.32152 -35.67416 34160 ft 499 kts 269°
2026-04-22 20:28 52.31520 -35.78687 34160 ft 498 kts 270°
2026-04-22 20:29 52.30881 -35.89874 34163 ft 497 kts 270°
2026-04-22 20:29 52.30230 -36.01102 34164 ft 496 kts 270°
2026-04-22 20:30 52.29568 -36.12331 34168 ft 495 kts 270°
2026-04-22 20:30 52.28901 -36.23448 34175 ft 494 kts 270°
2026-04-22 20:31 52.28221 -36.34616 34174 ft 494 kts 270°
2026-04-22 20:31 52.27530 -36.45785 34178 ft 493 kts 270°
2026-04-22 20:32 52.26830 -36.56935 34179 ft 493 kts 270°
2026-04-22 20:32 52.26124 -36.68009 34176 ft 493 kts 270°
2026-04-22 20:33 52.25403 -36.79142 34171 ft 493 kts 270°
2026-04-22 20:33 52.24672 -36.90278 34183 ft 493 kts 270°
2026-04-22 20:34 52.23930 -37.01404 34188 ft 492 kts 270°
2026-04-22 20:34 52.23178 -37.12518 34193 ft 492 kts 270°
2026-04-22 20:35 52.22422 -37.23548 34189 ft 492 kts 270°
2026-04-22 20:35 52.21650 -37.34652 34194 ft 492 kts 270°
2026-04-22 20:36 52.20867 -37.45755 34196 ft 492 kts 270°
2026-04-22 20:36 52.20074 -37.56850 34192 ft 492 kts 270°
2026-04-22 20:37 52.19272 -37.67927 34196 ft 492 kts 269°
2026-04-22 20:37 52.18464 -37.78938 34206 ft 492 kts 269°
2026-04-22 20:38 52.17639 -37.90025 34205 ft 491 kts 269°
2026-04-22 20:38 52.16807 -38.01074 34205 ft 491 kts 269°
2026-04-22 20:39 52.15970 -38.12039 34205 ft 491 kts 269°
2026-04-22 20:39 52.15119 -38.23058 34202 ft 490 kts 269°
2026-04-22 20:40 52.14258 -38.34073 34206 ft 490 kts 269°
2026-04-22 20:40 52.13388 -38.45063 34209 ft 489 kts 268°
2026-04-22 20:41 52.12508 -38.56049 34210 ft 489 kts 268°
2026-04-22 20:41 52.11618 -38.67035 34208 ft 489 kts 268°
2026-04-22 20:42 52.10724 -38.77933 34211 ft 489 kts 268°
2026-04-22 20:42 52.09815 -38.88887 34211 ft 488 kts 268°
2026-04-22 20:43 52.08896 -38.99830 34214 ft 488 kts 268°
2026-04-22 20:43 52.07966 -39.10777 34215 ft 488 kts 268°
2026-04-22 20:44 52.07032 -39.21655 34213 ft 488 kts 268°
2026-04-22 20:44 52.06084 -39.32582 34214 ft 488 kts 267°
2026-04-22 20:45 52.05126 -39.43496 34219 ft 488 kts 267°
2026-04-22 20:45 52.04158 -39.54403 34216 ft 488 kts 267°
2026-04-22 20:46 52.02686 -39.70768 34221 ft 488 kts 267°
2026-04-22 20:46 52.01692 -39.81674 34222 ft 488 kts 267°
2026-04-22 20:47 52.00689 -39.92586 34231 ft 489 kts 267°
2026-04-22 20:47 51.99671 -40.03423 34224 ft 490 kts 266°
2026-04-22 20:48 51.98540 -40.14337 34221 ft 491 kts 266°
2026-04-22 20:48 51.97367 -40.25261 34223 ft 491 kts 266°
2026-04-22 20:49 51.96392 -40.34341 34221 ft 491 kts 266°
2026-04-22 20:49 51.95027 -40.47051 34220 ft 492 kts 266°
2026-04-22 20:50 51.94044 -40.56150 34221 ft 493 kts 266°
2026-04-22 20:50 51.92851 -40.67105 34223 ft 493 kts 266°
2026-04-22 20:51 51.91645 -40.78073 34223 ft 494 kts 266°
2026-04-22 20:51 51.90426 -40.89057 34223 ft 495 kts 266°
2026-04-22 20:52 51.89203 -40.99982 34221 ft 496 kts 266°
2026-04-22 20:52 51.87960 -41.10986 34222 ft 496 kts 266°
2026-04-22 20:53 51.86707 -41.21977 34220 ft 497 kts 266°
2026-04-22 20:53 51.85443 -41.32973 34219 ft 497 kts 266°
2026-04-22 20:54 51.84168 -41.43974 34213 ft 497 kts 266°
2026-04-22 20:54 51.82882 -41.54966 34219 ft 497 kts 265°
2026-04-22 20:55 51.81590 -41.65925 34214 ft 496 kts 265°
2026-04-22 20:55 51.80295 -41.76805 34204 ft 495 kts 265°
2026-04-22 20:56 51.78984 -41.87738 34206 ft 495 kts 265°
2026-04-22 20:56 51.77666 -41.98639 34213 ft 494 kts 265°
2026-04-22 20:57 51.76336 -42.09547 34215 ft 494 kts 264°
2026-04-22 20:57 51.74998 -42.20438 34215 ft 494 kts 264°
2026-04-22 20:58 51.73652 -42.31302 34214 ft 493 kts 264°
2026-04-22 20:58 51.72304 -42.42090 34216 ft 493 kts 264°
2026-04-22 20:59 51.70938 -42.52943 34213 ft 493 kts 264°
2026-04-22 20:59 51.69562 -42.63782 34213 ft 493 kts 264°
2026-04-22 21:00 51.68186 -42.74548 34206 ft 493 kts 263°
2026-04-22 21:00 51.66791 -42.85370 34205 ft 493 kts 263°
2026-04-22 21:01 51.65387 -42.96180 34205 ft 493 kts 263°
2026-04-22 21:01 51.63968 -43.07016 34205 ft 493 kts 263°
2026-04-22 21:02 51.62544 -43.17817 34203 ft 493 kts 263°
2026-04-22 21:02 51.61109 -43.28615 34200 ft 493 kts 263°
2026-04-22 21:03 51.59662 -43.39419 34204 ft 493 kts 263°
2026-04-22 21:03 51.58216 -43.50142 34202 ft 493 kts 262°
2026-04-22 21:04 51.56752 -43.60917 34201 ft 493 kts 262°
2026-04-22 21:04 51.55278 -43.71683 34200 ft 493 kts 262°
2026-04-22 21:05 51.53795 -43.82437 34189 ft 493 kts 262°
2026-04-22 21:05 51.52304 -43.93167 34192 ft 492 kts 262°
2026-04-22 21:06 51.50814 -44.03821 34184 ft 492 kts 262°
2026-04-22 21:06 51.49306 -44.14525 34184 ft 491 kts 262°
2026-04-22 21:07 51.47787 -44.25227 34180 ft 491 kts 262°
2026-04-22 21:07 51.46260 -44.35911 34183 ft 491 kts 261°
2026-04-22 21:08 51.44725 -44.46580 34180 ft 491 kts 261°
2026-04-22 21:08 51.43179 -44.57243 34177 ft 490 kts 261°
2026-04-22 21:09 51.41637 -44.67813 34168 ft 490 kts 261°
2026-04-22 21:09 51.40076 -44.78439 34162 ft 489 kts 261°
2026-04-22 21:10 51.38508 -44.89039 34156 ft 489 kts 261°
2026-04-22 21:10 51.36931 -44.99631 34160 ft 488 kts 260°
2026-04-22 21:11 51.35346 -45.10197 34155 ft 488 kts 260°
2026-04-22 21:11 51.33752 -45.20761 34158 ft 487 kts 260°
2026-04-22 21:12 51.32161 -45.31233 34141 ft 487 kts 259°
2026-04-22 21:12 51.30555 -45.41735 34147 ft 486 kts 259°
2026-04-22 21:13 51.28941 -45.52221 34151 ft 485 kts 259°
2026-04-22 21:13 51.27317 -45.62699 34145 ft 485 kts 259°
2026-04-22 21:14 51.25696 -45.73095 34125 ft 485 kts 259°
2026-04-22 21:14 51.24057 -45.83543 34137 ft 485 kts 258°
2026-04-22 21:15 51.22407 -45.93987 34135 ft 485 kts 258°
2026-04-22 21:15 51.20748 -46.04431 34131 ft 486 kts 258°
2026-04-22 21:16 51.19077 -46.14878 34128 ft 486 kts 258°
2026-04-22 21:16 51.17396 -46.25319 34122 ft 486 kts 257°
2026-04-22 21:17 51.15714 -46.35703 34117 ft 487 kts 257°
2026-04-22 21:17 51.14015 -46.46135 34116 ft 487 kts 257°
2026-04-22 21:18 51.12304 -46.56566 34108 ft 487 kts 257°
2026-04-22 21:18 51.10582 -46.67007 34108 ft 487 kts 257°
2026-04-22 21:19 51.08852 -46.77432 34100 ft 487 kts 257°
2026-04-22 21:19 51.07114 -46.87826 34100 ft 486 kts 256°
2026-04-22 21:20 51.05370 -46.98205 34093 ft 485 kts 256°
2026-04-22 21:20 51.03635 -47.08476 34087 ft 483 kts 256°
2026-04-22 21:21 51.01883 -47.18779 34084 ft 482 kts 255°
2026-04-22 21:21 51.00125 -47.29057 34081 ft 481 kts 255°
2026-04-22 21:22 50.98362 -47.39301 34074 ft 481 kts 255°
2026-04-22 21:22 50.96591 -47.49537 34073 ft 481 kts 254°
2026-04-22 21:23 50.94812 -47.59758 34063 ft 481 kts 254°
2026-04-22 21:23 50.93021 -47.69984 34061 ft 481 kts 254°
2026-04-22 21:24 50.91231 -47.80152 34061 ft 482 kts 253°
2026-04-22 21:24 50.89416 -47.90398 34049 ft 483 kts 253°
2026-04-22 21:25 50.87592 -48.00645 34044 ft 483 kts 253°
2026-04-22 21:25 50.85757 -48.10885 34041 ft 484 kts 252°
2026-04-22 21:26 50.83908 -48.21149 34033 ft 484 kts 252°
2026-04-22 21:26 50.82065 -48.31329 34029 ft 485 kts 252°
2026-04-22 21:27 50.80198 -48.41575 34025 ft 484 kts 251°
2026-04-22 21:27 50.78325 -48.51799 34010 ft 483 kts 251°
2026-04-22 21:28 50.76450 -48.61987 34007 ft 482 kts 251°
2026-04-22 21:28 50.74572 -48.72128 34009 ft 480 kts 251°
2026-04-22 21:29 50.72703 -48.82154 33994 ft 478 kts 251°
2026-04-22 21:29 50.70820 -48.92209 33990 ft 477 kts 251°
2026-04-22 21:30 50.68936 -49.02223 33990 ft 475 kts 250°
2026-04-22 21:30 50.67042 -49.12225 33979 ft 475 kts 250°
2026-04-22 21:31 50.65156 -49.22138 33977 ft 475 kts 250°
2026-04-22 21:31 50.63249 -49.32111 33977 ft 475 kts 250°
2026-04-22 21:32 50.61332 -49.42077 33974 ft 476 kts 250°
2026-04-22 21:32 50.59403 -49.52065 33963 ft 477 kts 249°
2026-04-22 21:33 50.57462 -49.62051 33957 ft 477 kts 249°
2026-04-22 21:33 50.55514 -49.72029 33946 ft 478 kts 249°
2026-04-22 21:34 50.53564 -49.81961 33938 ft 478 kts 249°
2026-04-22 21:34 50.51595 -49.91954 33933 ft 479 kts 249°
2026-04-22 21:35 50.49571 -50.01939 33926 ft 478 kts 246°
2026-04-22 21:35 50.47251 -50.11721 33922 ft 477 kts 245°
2026-04-22 21:36 50.44872 -50.21432 33915 ft 477 kts 245°
2026-04-22 21:36 50.42512 -50.31103 33915 ft 477 kts 245°
2026-04-22 21:37 50.40146 -50.40826 33905 ft 477 kts 245°
2026-04-22 21:37 50.38179 -50.48900 33895 ft 477 kts 244°
2026-04-22 21:38 50.35805 -50.58605 33880 ft 476 kts 244°
2026-04-22 21:38 50.33428 -50.68277 33880 ft 476 kts 244°
2026-04-22 21:39 50.31034 -50.77969 33879 ft 476 kts 244°
2026-04-22 21:39 50.28637 -50.87631 33874 ft 476 kts 244°
2026-04-22 21:40 50.26246 -50.97230 33872 ft 477 kts 243°
2026-04-22 21:40 50.23829 -51.06893 33867 ft 477 kts 243°
2026-04-22 21:41 50.21406 -51.16535 33859 ft 477 kts 243°
2026-04-22 21:41 50.18976 -51.26164 33852 ft 477 kts 243°
2026-04-22 21:42 50.16536 -51.35791 33850 ft 476 kts 242°
2026-04-22 21:42 50.14108 -51.45334 33842 ft 476 kts 242°
2026-04-22 21:43 50.11658 -51.54921 33832 ft 475 kts 242°
2026-04-22 21:43 50.09198 -51.64507 33831 ft 475 kts 242°
2026-04-22 21:44 50.06738 -51.74051 33823 ft 474 kts 242°
2026-04-22 21:44 50.04293 -51.83503 33818 ft 474 kts 241°
2026-04-22 21:45 50.01822 -51.93020 33816 ft 473 kts 242°
2026-04-22 21:45 49.99982 -52.02948 33815 ft 483 kts 252°
2026-04-22 21:46 49.99232 -52.13377 33807 ft 490 kts 259°
2026-04-22 21:46 49.98761 -52.23975 33812 ft 491 kts 259°
2026-04-22 21:47 49.98274 -52.34575 33801 ft 492 kts 258°
2026-04-22 21:47 49.97745 -52.45198 33792 ft 493 kts 258°
2026-04-22 21:48 49.97191 -52.55835 33795 ft 494 kts 258°
2026-04-22 21:48 49.96623 -52.66491 33792 ft 495 kts 258°
2026-04-22 21:49 49.96046 -52.77165 33797 ft 497 kts 257°
2026-04-22 21:49 49.95750 -52.82539 33954 ft 500 kts 257°
2026-04-22 21:49 49.95454 -52.87911 34271 ft 499 kts 257°
2026-04-22 21:50 49.95161 -52.93210 34618 ft 498 kts 257°
2026-04-22 21:50 49.94862 -52.98571 34942 ft 497 kts 257°
2026-04-22 21:50 49.94561 -53.03920 35236 ft 498 kts 257°
2026-04-22 21:50 49.94255 -53.09285 35492 ft 498 kts 257°
2026-04-22 21:51 49.93946 -53.14655 35689 ft 499 kts 257°
2026-04-22 21:51 49.93632 -53.20042 35737 ft 502 kts 257°
2026-04-22 21:52 49.92686 -53.36133 35777 ft 499 kts 256°
2026-04-22 21:52 49.92045 -53.46857 35780 ft 497 kts 256°
2026-04-22 21:53 49.91395 -53.57525 35784 ft 496 kts 256°
2026-04-22 21:53 49.90732 -53.68202 35795 ft 496 kts 256°
2026-04-22 21:54 49.90061 -53.78860 35799 ft 497 kts 256°
2026-04-22 21:54 49.89379 -53.89543 35812 ft 498 kts 256°
2026-04-22 21:55 49.88692 -54.00163 35813 ft 499 kts 256°
2026-04-22 21:55 49.87987 -54.10896 35822 ft 500 kts 255°
2026-04-22 21:56 49.87272 -54.21639 35829 ft 501 kts 255°
2026-04-22 21:56 49.86546 -54.32389 35830 ft 501 kts 255°
2026-04-22 21:57 49.85814 -54.43074 35834 ft 502 kts 255°
2026-04-22 21:57 49.85067 -54.53845 35844 ft 502 kts 255°
2026-04-22 21:58 49.84309 -54.64622 35852 ft 503 kts 255°
2026-04-22 21:58 49.83542 -54.75383 35858 ft 503 kts 255°
2026-04-22 21:59 49.82769 -54.86074 35867 ft 503 kts 255°
2026-04-22 21:59 49.81981 -54.96839 35883 ft 502 kts 255°
2026-04-22 22:00 49.81184 -55.07586 35889 ft 502 kts 254°
2026-04-22 22:00 49.80376 -55.18344 35893 ft 502 kts 254°
2026-04-22 22:01 49.79560 -55.29079 35908 ft 502 kts 254°
2026-04-22 22:01 49.78735 -55.39794 35930 ft 501 kts 254°
2026-04-22 22:02 49.77906 -55.50434 35938 ft 501 kts 254°
2026-04-22 22:02 49.77062 -55.61118 35953 ft 500 kts 254°
2026-04-22 22:03 49.76208 -55.71813 35957 ft 500 kts 254°
2026-04-22 22:03 49.75345 -55.82499 35959 ft 500 kts 254°
2026-04-22 22:04 49.74472 -55.93166 35975 ft 500 kts 254°
2026-04-22 22:04 49.73596 -56.03764 35982 ft 500 kts 254°
2026-04-22 22:05 49.72705 -56.14424 35985 ft 500 kts 254°
2026-04-22 22:05 49.71803 -56.25093 35976 ft 500 kts 254°
2026-04-22 22:06 49.70893 -56.35735 35992 ft 499 kts 254°
2026-04-22 22:06 49.69973 -56.46366 35986 ft 498 kts 254°
2026-04-22 22:07 49.69046 -56.56981 36002 ft 498 kts 254°
2026-04-22 22:07 49.68111 -56.67559 35996 ft 497 kts 254°
2026-04-22 22:08 49.67166 -56.78146 36006 ft 496 kts 253°
2026-04-22 22:08 49.66221 -56.88618 36010 ft 496 kts 253°
2026-04-22 22:09 49.65258 -56.99165 36014 ft 496 kts 253°
2026-04-22 22:09 49.64285 -57.09706 36003 ft 496 kts 253°
2026-04-22 22:10 49.63306 -57.20232 36015 ft 496 kts 253°
2026-04-22 22:10 49.62316 -57.30769 36023 ft 496 kts 253°
2026-04-22 22:11 49.61318 -57.41284 36033 ft 496 kts 253°
2026-04-22 22:11 49.60307 -57.51811 36032 ft 496 kts 253°
2026-04-22 22:12 49.59289 -57.62319 36046 ft 495 kts 253°
2026-04-22 22:12 49.58262 -57.72821 36051 ft 495 kts 253°
2026-04-22 22:13 49.57228 -57.83294 36059 ft 494 kts 253°
2026-04-22 22:13 49.56192 -57.93707 36060 ft 494 kts 253°
2026-04-22 22:14 49.55141 -58.04150 36084 ft 491 kts 253°
2026-04-22 22:14 49.54085 -58.14534 36075 ft 491 kts 253°
2026-04-22 22:15 49.53020 -58.24912 36080 ft 491 kts 253°
2026-04-22 22:15 49.51943 -58.35313 36074 ft 491 kts 253°
2026-04-22 22:16 49.50859 -58.45699 36082 ft 491 kts 252°
2026-04-22 22:16 49.49767 -58.56068 36075 ft 491 kts 252°
2026-04-22 22:17 49.48673 -58.66362 36081 ft 491 kts 252°
2026-04-22 22:17 49.47563 -58.76711 36090 ft 490 kts 252°
2026-04-22 22:18 49.46445 -58.87047 36091 ft 490 kts 252°
2026-04-22 22:18 49.45321 -58.97349 36088 ft 489 kts 252°
2026-04-22 22:19 49.44187 -59.07657 36101 ft 489 kts 252°
2026-04-22 22:19 49.43044 -59.17958 36103 ft 488 kts 252°
2026-04-22 22:20 49.41894 -59.28232 36100 ft 488 kts 252°
2026-04-22 22:20 49.40737 -59.38488 36106 ft 487 kts 252°
2026-04-22 22:21 49.39572 -59.48718 36113 ft 486 kts 252°
2026-04-22 22:21 49.38399 -59.58942 36113 ft 486 kts 252°
2026-04-22 22:22 49.37219 -59.69142 36119 ft 485 kts 252°
2026-04-22 22:22 49.36030 -59.79341 36117 ft 485 kts 252°
2026-04-22 22:23 49.34835 -59.89510 36118 ft 485 kts 252°
2026-04-22 22:23 49.33636 -59.99627 36117 ft 484 kts 252°
2026-04-22 22:24 49.32425 -60.09773 36125 ft 484 kts 252°
2026-04-22 22:24 49.31202 -60.19931 36125 ft 484 kts 252°
2026-04-22 22:25 49.30180 -60.28359 36131 ft 484 kts 252°
2026-04-22 22:25 49.28733 -60.40204 36126 ft 484 kts 252°
2026-04-22 22:26 49.27697 -60.48619 36130 ft 484 kts 252°
2026-04-22 22:26 49.26442 -60.58748 36133 ft 484 kts 252°
2026-04-22 22:27 49.25179 -60.68866 36136 ft 484 kts 252°
2026-04-22 22:27 49.23908 -60.78970 36133 ft 484 kts 252°
2026-04-22 22:28 49.22627 -60.89077 36136 ft 483 kts 252°
2026-04-22 22:28 49.21338 -60.99172 36132 ft 483 kts 252°
2026-04-22 22:29 49.20041 -61.09258 36138 ft 483 kts 252°
2026-04-22 22:29 49.18742 -61.19284 36140 ft 483 kts 252°
2026-04-22 22:30 49.17430 -61.29340 36150 ft 483 kts 252°
2026-04-22 22:30 49.16108 -61.39401 36145 ft 482 kts 252°
2026-04-22 22:31 49.14778 -61.49444 36144 ft 482 kts 252°
2026-04-22 22:31 49.13441 -61.59474 36146 ft 482 kts 252°
2026-04-22 22:32 49.12096 -61.69494 36151 ft 481 kts 252°
2026-04-22 22:32 49.10744 -61.79497 36152 ft 481 kts 252°
2026-04-22 22:33 49.09383 -61.89494 36156 ft 481 kts 252°
2026-04-22 22:33 49.08015 -61.99479 36149 ft 481 kts 252°
2026-04-22 22:34 49.06640 -62.09446 36157 ft 480 kts 252°
2026-04-22 22:34 49.05257 -62.19398 36152 ft 479 kts 252°
2026-04-22 22:35 49.03869 -62.29320 36154 ft 479 kts 252°
2026-04-22 22:35 49.02482 -62.39174 36149 ft 478 kts 252°
2026-04-22 22:36 49.01078 -62.49076 36162 ft 478 kts 252°
2026-04-22 22:36 48.99669 -62.58956 36167 ft 477 kts 252°
2026-04-22 22:37 48.98238 -62.68901 36194 ft 487 kts 254°
2026-04-22 22:37 48.96761 -62.79095 36170 ft 498 kts 254°
2026-04-22 22:38 48.95264 -62.89398 36165 ft 499 kts 254°
2026-04-22 22:38 48.93757 -62.99699 36167 ft 499 kts 254°
2026-04-22 22:39 48.92241 -63.09992 36167 ft 498 kts 254°
2026-04-22 22:39 48.90718 -63.20253 36167 ft 497 kts 254°
2026-04-22 22:40 48.89190 -63.30478 36167 ft 495 kts 254°
2026-04-22 22:40 48.87658 -63.40657 36163 ft 494 kts 254°
2026-04-22 22:41 48.86131 -63.50748 36173 ft 493 kts 254°
2026-04-22 22:41 48.84588 -63.60875 36185 ft 492 kts 254°
2026-04-22 22:42 48.83039 -63.70978 36171 ft 491 kts 254°
2026-04-22 22:42 48.81479 -63.81083 36175 ft 491 kts 254°
2026-04-22 22:43 48.79915 -63.91161 36175 ft 491 kts 254°
2026-04-22 22:43 48.78340 -64.01240 36170 ft 491 kts 254°
2026-04-22 22:44 48.76757 -64.11309 36161 ft 491 kts 254°
2026-04-22 22:44 48.75164 -64.21380 36153 ft 491 kts 254°
2026-04-22 22:45 48.73572 -64.31382 36143 ft 491 kts 254°
2026-04-22 22:45 48.71963 -64.41433 36142 ft 491 kts 254°
2026-04-22 22:46 48.70347 -64.51466 36140 ft 490 kts 254°
2026-04-22 22:46 48.68721 -64.61496 36145 ft 490 kts 254°
2026-04-22 22:47 48.67089 -64.71507 36151 ft 490 kts 254°
2026-04-22 22:47 48.65448 -64.81515 36154 ft 490 kts 254°
2026-04-22 22:48 48.63798 -64.91518 36160 ft 489 kts 255°
2026-04-22 22:48 48.62155 -65.01418 36157 ft 489 kts 255°
2026-04-22 22:49 48.60493 -65.11379 36157 ft 488 kts 255°
2026-04-22 22:49 48.58840 -65.21239 36113 ft 476 kts 253°
2026-04-22 22:50 48.57221 -65.30835 36136 ft 469 kts 253°
2026-04-22 22:50 48.55598 -65.40385 36139 ft 470 kts 253°
2026-04-22 22:51 48.53961 -65.49962 36138 ft 471 kts 253°
2026-04-22 22:51 48.52316 -65.59545 36140 ft 472 kts 253°
2026-04-22 22:52 48.50669 -65.69090 36140 ft 474 kts 253°
2026-04-22 22:52 48.48996 -65.78726 36128 ft 475 kts 253°
2026-04-22 22:53 48.47314 -65.88367 36132 ft 476 kts 253°
2026-04-22 22:53 48.45620 -65.98030 36129 ft 476 kts 254°
2026-04-22 22:54 48.43931 -66.07609 36128 ft 476 kts 254°
2026-04-22 22:54 48.42221 -66.17247 36132 ft 476 kts 254°
2026-04-22 22:55 48.40505 -66.26872 36120 ft 475 kts 254°
2026-04-22 22:55 48.37920 -66.41274 36107 ft 474 kts 254°
2026-04-22 22:56 48.36205 -66.50767 36119 ft 473 kts 254°
2026-04-22 22:56 48.34474 -66.60301 36107 ft 472 kts 254°
2026-04-22 22:57 48.32735 -66.69826 36113 ft 472 kts 254°
2026-04-22 22:57 48.30993 -66.79318 36121 ft 471 kts 254°
2026-04-22 22:58 48.29244 -66.88801 36104 ft 471 kts 254°
2026-04-22 22:58 48.27486 -66.98282 36112 ft 471 kts 254°
2026-04-22 22:59 48.25724 -67.07736 36099 ft 470 kts 254°
2026-04-22 22:59 48.23963 -67.17137 36114 ft 470 kts 254°
2026-04-22 23:00 48.22187 -67.26575 36106 ft 470 kts 254°
2026-04-22 23:00 48.20403 -67.36004 36102 ft 470 kts 254°
2026-04-22 23:01 48.18612 -67.45424 36091 ft 470 kts 254°
2026-04-22 23:01 48.16816 -67.54820 36096 ft 469 kts 254°
2026-04-22 23:02 48.15011 -67.64217 36102 ft 469 kts 254°
2026-04-22 23:02 48.13203 -67.73589 36083 ft 469 kts 254°
2026-04-22 23:03 48.11397 -67.82898 36099 ft 468 kts 254°
2026-04-22 23:03 48.09574 -67.92253 36089 ft 468 kts 254°
2026-04-22 23:04 48.07746 -68.01590 36085 ft 468 kts 254°
2026-04-22 23:04 48.05908 -68.10929 36099 ft 468 kts 254°
2026-04-22 23:05 48.04059 -68.20282 36073 ft 468 kts 254°
2026-04-22 23:05 48.02200 -68.29637 36110 ft 474 kts 255°
2026-04-22 23:06 48.00303 -68.39145 36086 ft 480 kts 255°
2026-04-22 23:06 47.98386 -68.48698 36079 ft 479 kts 255°
2026-04-22 23:07 47.96479 -68.58151 36078 ft 478 kts 255°
2026-04-22 23:07 47.94555 -68.67649 36079 ft 477 kts 255°
2026-04-22 23:08 47.92627 -68.77120 36071 ft 476 kts 255°
2026-04-22 23:08 47.90699 -68.86545 36072 ft 475 kts 255°
2026-04-22 23:09 47.88776 -68.95905 36071 ft 474 kts 255°
2026-04-22 23:09 47.86842 -69.05274 36070 ft 473 kts 255°
2026-04-22 23:10 47.84899 -69.14643 36071 ft 473 kts 255°
2026-04-22 23:10 47.82947 -69.24014 36071 ft 473 kts 255°
2026-04-22 23:11 47.80991 -69.33356 36075 ft 473 kts 255°
2026-04-22 23:11 47.79028 -69.42699 36071 ft 473 kts 255°
2026-04-22 23:12 47.77056 -69.51972 36071 ft 474 kts 253°
2026-04-22 23:12 47.74187 -69.60829 36073 ft 478 kts 242°
2026-04-22 23:13 47.70250 -69.68833 36072 ft 482 kts 233°
2026-04-22 23:13 47.66672 -69.75182 36057 ft 482 kts 233°
2026-04-22 23:14 47.62366 -69.82824 36057 ft 482 kts 233°
2026-04-22 23:14 47.58092 -69.90490 36054 ft 482 kts 234°
2026-04-22 23:15 47.53814 -69.98178 36052 ft 482 kts 234°
2026-04-22 23:15 47.49565 -70.05788 36051 ft 483 kts 234°
2026-04-22 23:16 47.45284 -70.13432 36049 ft 483 kts 234°
2026-04-22 23:16 47.40989 -70.21057 36042 ft 483 kts 234°
2026-04-22 23:17 47.36675 -70.28661 36038 ft 483 kts 234°
2026-04-22 23:17 47.32355 -70.36256 36050 ft 483 kts 234°
2026-04-22 23:18 47.28030 -70.43848 36050 ft 483 kts 234°
2026-04-22 23:18 47.23704 -70.51423 36042 ft 483 kts 234°
2026-04-22 23:19 47.19403 -70.58932 36049 ft 482 kts 234°
2026-04-22 23:19 47.15068 -70.66480 36050 ft 482 kts 234°
2026-04-22 23:20 47.10735 -70.74004 36038 ft 482 kts 234°
2026-04-22 23:20 47.06401 -70.81511 36043 ft 481 kts 234°
2026-04-22 23:21 47.02059 -70.88990 36040 ft 481 kts 234°
2026-04-22 23:21 46.97733 -70.96399 36046 ft 482 kts 234°
2026-04-22 23:22 46.93369 -71.03858 36033 ft 482 kts 234°
2026-04-22 23:22 46.89005 -71.11302 36031 ft 482 kts 234°
2026-04-22 23:23 46.84635 -71.18739 36028 ft 482 kts 234°
2026-04-22 23:23 46.80263 -71.26157 36028 ft 482 kts 233°
2026-04-22 23:24 46.75503 -71.33052 36027 ft 487 kts 226°
2026-04-22 23:24 46.70419 -71.39594 36020 ft 487 kts 226°
2026-04-22 23:25 46.65343 -71.46138 36023 ft 486 kts 227°
2026-04-22 23:25 46.60327 -71.52654 36026 ft 486 kts 227°
2026-04-22 23:26 46.55281 -71.59209 36021 ft 486 kts 227°
2026-04-22 23:26 46.50222 -71.65760 35974 ft 487 kts 227°
2026-04-22 23:27 46.47658 -71.69079 35143 ft 499 kts 227°
2026-04-22 23:27 46.45065 -71.72425 34419 ft 498 kts 227°
2026-04-22 23:27 46.42463 -71.75775 33398 ft 501 kts 228°
2026-04-22 23:27 46.39901 -71.79152 32721 ft 492 kts 231°
2026-04-22 23:28 46.37596 -71.82666 32023 ft 482 kts 236°
2026-04-22 23:28 46.35535 -71.86439 31359 ft 474 kts 239°
2026-04-22 23:28 46.33534 -71.90183 30790 ft 467 kts 239°
2026-04-22 23:28 46.31552 -71.93872 30249 ft 460 kts 239°
2026-04-22 23:29 46.29592 -71.97494 29644 ft 454 kts 239°
2026-04-22 23:29 46.27652 -72.01054 29136 ft 446 kts 239°
2026-04-22 23:29 46.25743 -72.04543 29004 ft 443 kts 239°
2026-04-22 23:29 46.23827 -72.08044 29002 ft 443 kts 239°
2026-04-22 23:30 46.20013 -72.14991 28995 ft 440 kts 239°
2026-04-22 23:30 46.18112 -72.18446 28853 ft 438 kts 239°
2026-04-22 23:30 46.16223 -72.21874 28311 ft 434 kts 239°
2026-04-22 23:31 46.14353 -72.25260 27761 ft 428 kts 239°
2026-04-22 23:31 46.12529 -72.28558 27230 ft 423 kts 238°
2026-04-22 23:31 46.10699 -72.31853 26696 ft 418 kts 238°
2026-04-22 23:31 46.08887 -72.35106 26164 ft 414 kts 238°
2026-04-22 23:32 46.07091 -72.38327 25642 ft 410 kts 238°
2026-04-22 23:32 46.05312 -72.41515 25146 ft 406 kts 238°
2026-04-22 23:32 46.03554 -72.44667 24655 ft 401 kts 238°
2026-04-22 23:32 46.01830 -72.47755 24156 ft 393 kts 238°
2026-04-22 23:33 46.00121 -72.50805 23300 ft 384 kts 238°
2026-04-22 23:33 45.98469 -72.53758 22232 ft 382 kts 238°
2026-04-22 23:33 45.96870 -72.56781 21228 ft 376 kts 242°
2026-04-22 23:33 45.95421 -72.59895 20316 ft 372 kts 243°
2026-04-22 23:34 45.94003 -72.62967 19526 ft 367 kts 243°
2026-04-22 23:34 45.92595 -72.66014 19064 ft 363 kts 242°
2026-04-22 23:34 45.91201 -72.69022 18607 ft 361 kts 242°
2026-04-22 23:34 45.89815 -72.72003 18130 ft 358 kts 242°
2026-04-22 23:35 45.88437 -72.74960 17627 ft 355 kts 242°
2026-04-22 23:35 45.87073 -72.77885 17163 ft 350 kts 242°
2026-04-22 23:35 45.85738 -72.80739 16723 ft 346 kts 242°
2026-04-22 23:35 45.84404 -72.83585 16300 ft 342 kts 242°
2026-04-22 23:36 45.83086 -72.86397 15868 ft 338 kts 242°
2026-04-22 23:36 45.81776 -72.89179 15445 ft 334 kts 242°
2026-04-22 23:36 45.80481 -72.91922 15027 ft 330 kts 242°
2026-04-22 23:36 45.79198 -72.94641 14604 ft 327 kts 242°
2026-04-22 23:37 45.77927 -72.97337 14197 ft 326 kts 242°
2026-04-22 23:37 45.76653 -73.00038 13786 ft 329 kts 242°
2026-04-22 23:37 45.75359 -73.02784 13326 ft 337 kts 241°
2026-04-22 23:37 45.74039 -73.05574 12882 ft 339 kts 241°
2026-04-22 23:38 45.72716 -73.08362 12432 ft 337 kts 240°
2026-04-22 23:38 45.71570 -73.11177 12021 ft 327 kts 250°
2026-04-22 23:38 45.70768 -73.14179 11701 ft 315 kts 256°
2026-04-22 23:38 45.70267 -73.17078 11523 ft 288 kts 264°
2026-04-22 23:39 45.69962 -73.19828 11165 ft 273 kts 265°
2026-04-22 23:39 45.69690 -73.22474 10627 ft 266 kts 265°
2026-04-22 23:39 45.69426 -73.25083 9985 ft 264 kts 265°
2026-04-22 23:39 45.69161 -73.27696 9251 ft 267 kts 265°
2026-04-22 23:40 45.68981 -73.29447 8920 ft 268 kts 265°
2026-04-22 23:40 45.68845 -73.30750 8778 ft 265 kts 264°
2026-04-22 23:40 45.68574 -73.33337 8515 ft 261 kts 264°
2026-04-22 23:40 45.68306 -73.35873 8256 ft 260 kts 264°
2026-04-22 23:41 45.68035 -73.38429 8080 ft 258 kts 264°
2026-04-22 23:41 45.67764 -73.40967 8034 ft 260 kts 264°
2026-04-22 23:41 45.67490 -73.43539 8010 ft 263 kts 264°
2026-04-22 23:41 45.67212 -73.46132 7996 ft 264 kts 264°
2026-04-22 23:42 45.66933 -73.48714 7970 ft 261 kts 264°
2026-04-22 23:42 45.66658 -73.51253 7555 ft 257 kts 264°
2026-04-22 23:42 45.66543 -73.53774 6865 ft 255 kts 283°
2026-04-22 23:42 45.67363 -73.55981 6281 ft 254 kts 313°
2026-04-22 23:43 45.68578 -73.57797 5844 ft 252 kts 312°
2026-04-22 23:43 45.69738 -73.59645 5543 ft 247 kts 311°
2026-04-22 23:43 45.70852 -73.61438 5290 ft 242 kts 311°
2026-04-22 23:43 45.71953 -73.63212 5089 ft 232 kts 310°
2026-04-22 23:44 45.73004 -73.64905 5023 ft 225 kts 310°
2026-04-22 23:44 45.74042 -73.66576 5016 ft 224 kts 310°
2026-04-22 23:44 45.75086 -73.68259 5019 ft 228 kts 310°
2026-04-22 23:44 45.76147 -73.69967 5011 ft 230 kts 310°
2026-04-22 23:45 45.77207 -73.71676 5011 ft 229 kts 310°
2026-04-22 23:45 45.78265 -73.73384 4976 ft 230 kts 310°
2026-04-22 23:45 45.79342 -73.75123 4629 ft 238 kts 310°
2026-04-22 23:45 45.80451 -73.76915 4058 ft 239 kts 310°
2026-04-22 23:46 45.81306 -73.78915 3487 ft 238 kts 283°
2026-04-22 23:46 45.81260 -73.81197 3142 ft 231 kts 250°
2026-04-22 23:46 45.80438 -73.83161 3005 ft 226 kts 226°
2026-04-22 23:46 45.79329 -73.84640 2996 ft 215 kts 224°
2026-04-22 23:47 45.78264 -73.86128 2808 ft 214 kts 225°
2026-04-22 23:47 45.77219 -73.87628 2483 ft 210 kts 225°
2026-04-22 23:47 45.76197 -73.89093 2190 ft 205 kts 225°
2026-04-22 23:47 45.75199 -73.90521 1907 ft 200 kts 224°
2026-04-22 23:48 45.74244 -73.91889 1674 ft 185 kts 224°
2026-04-22 23:48 45.73370 -73.93140 1395 ft 171 kts 224°
2026-04-22 23:48 45.72576 -73.94275 1163 ft 157 kts 224°
2026-04-22 23:48 45.71800 -73.95385 959 ft 161 kts 225°
2026-04-22 23:49 45.70998 -73.96532 737 ft 164 kts 225°
2026-04-22 23:49 45.70181 -73.97698 520 ft 168 kts 226°
2026-04-22 23:49 45.69345 -73.98892 313 ft 171 kts 226°
2026-04-22 23:49 45.68544 -74.00038 258 ft 148 kts 224°
2026-04-22 23:50 45.67976 -74.00841 263 ft 81 kts 225°
2026-04-22 23:50 45.67738 -74.01180 263 ft 18 kts 224°
2026-04-22 23:50 45.67631 -74.01332 263 ft 26 kts 225°
2026-04-22 23:50 45.67500 -74.01520 264 ft 27 kts 225°
2026-04-22 23:51 45.67370 -74.01704 269 ft 27 kts 225°
2026-04-22 23:51 45.67238 -74.01892 269 ft 27 kts 225°
2026-04-22 23:51 45.67117 -74.02063 267 ft 14 kts 225°
2026-04-22 23:51 45.67087 -74.02174 268 ft 12 kts 287°
2026-04-22 23:52 45.67136 -74.02275 273 ft 12 kts 313°
2026-04-22 23:52 45.67187 -74.02349 269 ft 8 kts 315°
2026-04-22 23:52 45.67231 -74.02399 270 ft 8 kts 328°
2026-04-22 23:52 45.67282 -74.02432 269 ft 8 kts 336°
2026-04-22 23:53 45.67334 -74.02465 269 ft 8 kts 335°
2026-04-22 23:53 45.67386 -74.02498 270 ft 8 kts 336°
2026-04-22 23:53 45.67441 -74.02532 270 ft 10 kts 337°
2026-04-22 23:53 45.67503 -74.02573 270 ft 10 kts 326°
2026-04-22 23:54 45.67522 -74.02674 271 ft 14 kts 257°
2026-04-22 23:54 45.67485 -74.02824 272 ft 17 kts 250°
2026-04-22 23:54 45.67445 -74.02978 273 ft 17 kts 250°
2026-04-22 23:54 45.67406 -74.03133 277 ft 17 kts 249°
2026-04-22 23:55 45.67365 -74.03287 275 ft 17 kts 250°
2026-04-22 23:55 45.67326 -74.03442 276 ft 17 kts 250°
2026-04-22 23:55 45.67286 -74.03596 280 ft 17 kts 250°
2026-04-22 23:55 45.67253 -74.03727 279 ft 4 kts 250°
2026-04-22 23:56 45.67253 -74.03728 279 ft 0 kts 250°
2026-04-22 23:56 45.67244 -74.03763 279 ft 5 kts 250°
2026-04-22 23:56 45.67229 -74.03821 283 ft 8 kts 250°
2026-04-22 23:57 45.67204 -74.03916 284 ft 12 kts 250°
2026-04-22 23:57 45.67170 -74.04051 281 ft 15 kts 250°
2026-04-22 23:57 45.67154 -74.04198 282 ft 15 kts 278°
2026-04-22 23:57 45.67172 -74.04335 281 ft 11 kts 286°
2026-04-22 23:58 45.67235 -74.04385 281 ft 11 kts 360°
2026-04-22 23:58 45.67313 -74.04370 280 ft 11 kts
2026-04-22 23:58 45.67390 -74.04355 280 ft 11 kts
2026-04-22 23:58 45.67468 -74.04339 280 ft 11 kts
2026-04-22 23:59 45.67546 -74.04323 279 ft 11 kts
2026-04-22 23:59 45.67624 -74.04307 279 ft 11 kts
2026-04-22 23:59 45.67702 -74.04287 278 ft 11 kts
2026-04-22 23:59 45.67780 -74.04271 278 ft 11 kts
2026-04-23 00:00 45.67917 -74.04241 278 ft 6 kts
2026-04-23 00:00 45.67941 -74.04257 278 ft 6 kts 316°
2026-04-23 00:00 45.67957 -74.04332 278 ft 2 kts 278°
2026-04-23 00:01 45.67958 -74.04346 278 ft 0 kts 278°